Weather History for Indian Springs, NV

Change the Weather History Date:

Monday, February 25, 2013

  Actual Average (KDRA) Record (KDRA)
Temperature  
Mean Temperature 39 °F -  
Max Temperature 55 °F 55 °F 72 °F (2012)
Min Temperature 23 °F 35 °F 28 °F (2013)
Degree Days  
Heating Degree Days 26    
Moisture  
Dew Point 4 °F    
Average Humidity 25    
Maximum Humidity 41    
Minimum Humidity 11    
Precipitation  
Precipitation 0.00 in - - ()
Sea Level Pressure  
Sea Level Pressure 30.14 in    
Wind  
Wind Speed 3 mph (SE)    
Max Wind Speed 13 mph    
Max Gust Speed -    
Visibility 10 miles    
Events      
Averages and records for this station are not official NWS values.
T = Trace of Precipitation, MM = Missing Value Source: NWS Daily Summary

Daily Weather History Graph

Daily Weather History Graph

Search for Another Location

Airport:

Trip Planner

Search our weather history database for the weather conditions in past years. The results will help you decide how hot, cold, wet, or windy it might be!

Date:

Astronomy

Feb. 25, 2013 Rise Set
Actual Time 6:18 AM PST 5:33 PM PST
Civil Twilight 5:52 AM PST 5:59 PM PST
Nautical Twilight 5:22 AM PST 6:29 PM PST
Astronomical Twilight 4:52 AM PST 6:59 PM PST
Moon 5:49 PM PST (2/25) 5:51 AM PST (2/25)
Length of Visible Light 12h 07m
Length of Day
11h 15m
Full, 100% of the Moon is Illuminated
Feb 25
Full
Feb 25
Full
Mar 4
Last Quarter
Mar 11
New
Mar 19
First Quarter

Hourly Weather History & Observations

Time (PST) Temp. Windchill Dew Point Humidity Pressure Visibility Wind Dir Wind Speed Gust Speed Precip Events Conditions
12:58 AM 29.5 °F 24.5 °F 1.8 °F 31% 30.24 in 10.0 mi West 4.6 mph - N/A   Clear
1:58 AM 29.8 °F - 2.5 °F 31% 30.24 in 10.0 mi Calm Calm - N/A   Clear
2:58 AM 25.9 °F 21.7 °F 2.1 °F 36% 30.23 in 10.0 mi Variable 3.5 mph - N/A   Clear
3:58 AM 27.5 °F - 4.1 °F 37% 30.23 in 10.0 mi Calm Calm - N/A   Clear
4:58 AM 26.1 °F - 2.5 °F 36% 30.23 in 10.0 mi Calm Calm - N/A   Clear
5:58 AM 23.2 °F 18.7 °F 2.3 °F 41% 30.23 in 10.0 mi SSW 3.5 mph - N/A   Clear
6:55 AM 24.6 °F - 3.6 °F 40% 30.25 in 10.0 mi Calm Calm - N/A   Clear
6:58 AM 24.6 °F - 3.6 °F 40% 30.24 in 10.0 mi WSW 1.2 mph - N/A   Clear
7:58 AM 30.7 °F - 5.2 °F 34% 30.24 in 10.0 mi Calm Calm - N/A   Clear
8:58 AM 38.1 °F - 5.4 °F 26% 30.24 in 10.0 mi NE 2.3 mph - N/A   Clear
9:58 AM 43.3 °F - 4.1 °F 20% 30.23 in 10.0 mi Variable 2.3 mph - N/A   Clear
10:58 AM 46.2 °F - 4.6 °F 18% 30.20 in 10.0 mi NW 2.3 mph - N/A   Clear
11:55 AM 48.2 °F - 3.2 °F 16% 30.14 in 10.0 mi Variable 2.3 mph - N/A   Clear
12:58 PM 50.2 °F - 1.2 °F 13% 30.10 in 10.0 mi ENE 3.5 mph - N/A   Clear
1:58 PM 53.4 °F - 1.8 °F 12% 30.07 in 10.0 mi ENE 3.5 mph - N/A   Clear
2:58 PM 55.9 °F - 2.1 °F 11% 30.04 in 10.0 mi ESE 8.1 mph - N/A   Clear
3:58 PM 55.8 °F - 1.8 °F 11% 30.02 in 10.0 mi ESE 10.4 mph - N/A   Clear
4:58 PM 53.8 °F - 7.3 °F 15% 30.00 in 10.0 mi East 12.7 mph - N/A   Clear
5:58 PM 49.5 °F - 8.4 °F 19% 30.00 in 10.0 mi ESE 10.4 mph - N/A   Clear
6:58 PM 45.5 °F 40.8 °F 9.0 °F 23% 30.01 in 10.0 mi ESE 9.2 mph - N/A   Clear
7:58 PM 42.8 °F - 8.4 °F 24% 30.02 in 10.0 mi SSE 2.3 mph - N/A   Clear
8:58 PM 41.4 °F - 5.7 °F 23% 30.03 in 10.0 mi WSW 2.3 mph - N/A   Clear
9:58 PM 39.9 °F 34.5 °F 5.2 °F 24% 30.04 in 10.0 mi WSW 8.1 mph - N/A   Clear
10:58 PM 39.4 °F - 5.7 °F 25% 30.05 in 10.0 mi Variable 1.2 mph - N/A   Clear
11:58 PM 36.5 °F 33.9 °F 3.7 °F 25% 30.06 in 10.0 mi West 3.5 mph - N/A   Clear